{"data":{"norad_id":52135,"intl_designator":"2022-029AZ","name":"STARLINK-3729","alt_names":[],"object_type":"PAYLOAD","status":"ACTIVE","operator":null,"country":"US","launch_date":"2022-03-19","launch_site_code":"AFETR","launch_vehicle":null,"mission":null,"orbit_class":"UNKNOWN","rcs_meters":null,"size_class":null,"mass_kg":null,"dimensions":null,"purposes":["comms"],"wikipedia_slug":null,"has_3d_model":false,"image_url":null,"decayed_at":null,"tle_current":{"epoch":"2026-06-14T22:18:54.365760Z","epoch_age_seconds":8485872,"freshness":"OLD","line1":"1 52135U 22029AZ  26165.92979590  .08952084  12525-4  23679-3 0  9996","line2":"2 52135  53.2051 325.0076 0008413 284.3859  75.6258 16.45121191236007","mean_motion":16.45121191,"eccentricity":0.0008413,"inclination_deg":53.2051,"raan_deg":325.0076,"arg_perigee_deg":284.3859,"mean_anomaly_deg":75.6258,"bstar":0.00023679,"rev_number":23600,"period_min":87.531545267172,"perigee_km":146.72079870501,"apogee_km":157.7087686162,"semimajor_km":6530.3517836606,"source":"CELESTRAK","updated_at":"2026-06-15T09:01:40.827647Z"}}}